Hartford, CT

3:09 PM EDT on September 23, 2017 (GMT -0400)
Hartford-brainard

Weather History for KHFD - July, 2014

Change the Weather History Date:

Wednesday, July 9, 2014

  Actual Average Record
Temperature  
Mean Temperature 78 °F -  
Max Temperature 87 °F 85 °F 97 °F (1937)
Min Temperature 70 °F 63 °F 45 °F (1963)
Cooling Degree Days 14    
Growing Degree Days 28 (Base 50)    
Moisture  
Dew Point 64 °F    
Average Humidity 66    
Maximum Humidity 93    
Minimum Humidity 40    
Precipitation  
Precipitation 0.02 in - - ()
Sea Level Pressure  
Sea Level Pressure 29.85 in    
Wind  
Wind Speed 8 mph (SSW)    
Max Wind Speed 14 mph    
Max Gust Speed 18 mph    
Visibility 10 miles    
Events Rain , Thunderstorm    
Averages and records for this station are not official NWS values.
T = Trace of Precipitation, MM = Missing Value Source: NWS Daily Summary

Daily Weather History Graph

Daily Weather History Graph

Search for Another Location

Airport or City:

Trip Planner

Search our weather history database for the weather conditions in past years. The results will help you decide how hot, cold, wet, or windy it might be!

Date:

Astronomy

Jul. 09, 2014 Rise Set
Actual Time 5:24 AM EDT 8:26 PM EDT
Civil Twilight 4:50 AM EDT 9:00 PM EDT
Nautical Twilight 4:08 AM EDT 9:43 PM EDT
Astronomical Twilight 3:17 AM EDT 10:33 PM EDT
Moon 5:34 PM EDT (7/9) 2:41 AM EDT (7/9)
Length of Visible Light 16h 09m
Length of Day
15h 02m
Waxing Gibbous, 89% of the Moon is Illuminated
Jul 9
Waxing Gibbous
Jul 12
Full
Jul 18
Last Quarter
Jul 26
New
Aug 3
First Quarter

Hourly Weather History & Observations

Time (EDT) Temp. Heat Index Dew Point Humidity Pressure Visibility Wind Dir Wind Speed Gust Speed Precip Events Conditions
12:53 AM 75.9 °F - 64.0 °F 67% 29.71 in 10.0 mi West 10.4 mph - N/A   Mostly Cloudy
2:53 AM 73.0 °F - 64.9 °F 76% 29.74 in 10.0 mi WSW 8.1 mph - N/A   Clear
3:53 AM 73.0 °F - 64.9 °F 76% 29.75 in 10.0 mi SW 4.6 mph - N/A   Clear
4:53 AM 71.1 °F - 66.0 °F 84% 29.77 in 10.0 mi SSE 6.9 mph - N/A   Partly Cloudy
5:53 AM 71.1 °F - 66.0 °F 84% 29.79 in 10.0 mi South 5.8 mph - N/A   Clear
6:20 AM 71.1 °F - 66.0 °F 84% 29.81 in 10.0 mi SSE 6.9 mph - N/A   Partly Cloudy
6:53 AM 72.0 °F - 66.0 °F 81% 29.82 in 9.0 mi SSE 6.9 mph - N/A   Partly Cloudy
7:53 AM 75.0 °F - 64.9 °F 71% 29.84 in 10.0 mi Variable 5.8 mph - N/A   Clear
8:53 AM 77.0 °F - 64.0 °F 64% 29.86 in 10.0 mi SW 4.6 mph - N/A   Clear
10:53 AM 81.0 °F 81.9 °F 62.1 °F 52% 29.87 in 10.0 mi SW 8.1 mph - N/A   Clear
11:53 AM 82.9 °F 83.7 °F 62.1 °F 49% 29.87 in 10.0 mi Variable 6.9 mph - N/A   Scattered Clouds
12:53 PM 84.0 °F 83.8 °F 59.0 °F 43% 29.87 in 10.0 mi SW 8.1 mph 18.4 mph N/A   Partly Cloudy
1:53 PM 84.9 °F 85.0 °F 61.0 °F 44% 29.86 in 10.0 mi SSW 10.4 mph 18.4 mph N/A   Partly Cloudy
2:53 PM 84.9 °F 84.8 °F 60.1 °F 43% 29.86 in 10.0 mi SW 9.2 mph - N/A   Scattered Clouds
3:53 PM 86.0 °F 86.1 °F 61.0 °F 43% 29.85 in 10.0 mi South 8.1 mph 18.4 mph N/A   Scattered Clouds
4:53 PM 86.0 °F 85.4 °F 59.0 °F 40% 29.83 in 10.0 mi SSW 10.4 mph 17.3 mph N/A   Clear
5:53 PM 84.0 °F 84.5 °F 62.1 °F 47% 29.84 in 10.0 mi South 13.8 mph - N/A   Clear
6:53 PM 81.0 °F 83.0 °F 66.0 °F 60% 29.86 in 10.0 mi South 11.5 mph - N/A   Clear
8:53 PM 78.1 °F - 66.0 °F 66% 29.88 in 10.0 mi SSE 5.8 mph - N/A   Partly Cloudy
9:38 PM 75.9 °F - 66.0 °F 71% 29.92 in 10.0 mi South 9.2 mph - 0.00 in Rain , Thunderstorm Light Rain
9:53 PM 73.9 °F - 66.9 °F 79% 29.93 in 6.0 mi SSW 10.4 mph 16.1 mph 0.02 in Rain , Thunderstorm Light Thunderstorms and Rain
10:08 PM 73.0 °F - 64.9 °F 76% 29.93 in 10.0 mi SSW 4.6 mph - 0.00 in   Overcast
10:53 PM 71.1 °F - 68.0 °F 90% 29.94 in 10.0 mi SSE 4.6 mph - 0.00 in   Partly Cloudy
11:53 PM 70.0 °F - 68.0 °F 93% 29.94 in 9.0 mi Calm Calm - N/A   Clear